Flag for Sudan Weather past 2 weeks in Khartoum, Sudan

Now
N/A

Clear.


Feels Like: N/A
Forecast: 84 / 100 °F
Wind: 5 mph from Northwest

Location: Khartoum Airport

Current Time: Oct 25, 2014 at 7:11:11 PM

Latest Report: Oct 25, 2014 at 6:30 PM


Visibility: 10 mi

Pressure: 29.80 "Hg

Humidity: N/A

Dew point: N/A

Location of KhartoumLocation

Historic Weather in Khartoum — Graph

°F

Khartoum temperature yesterday

Maximum temperature yesterday: 102 °F (at 4:00 PM)
Minimum temperature yesterday: 81 °F (at 6:00 AM)
Average temperature yesterday: 91 °F

Past Weeks' High & Low Weather Summary

 TemperatureHumidityPressure
High122 °F (Oct 12, 4:30 PM)70% (Oct 11, 3:00 AM)29.98 "Hg (Oct 11, 3:00 AM)
Low77 °F (Oct 17, 7:00 AM)6% (Oct 16, 6:00 PM)29.71 "Hg (Oct 19, 4:30 PM)
Average91 °F25%29.86 "Hg
* Reported Oct 10 6:00 PM — Oct 25 6:00 PM, Khartoum, Weather by CustomWeather, © 2014

Note: Actual official high and low records may vary slightly from our data, if they occured in-between our weather recording intervals... More about our weather records

Advertising

Khartoum weather history for previous 24 hours

 ConditionsComfort  
Time TempWeatherWind HumidityBarometerVisibility
6:00 PM
Oct 25
99 °FSunny.7 mph17%29.80 "Hg10 mi
5:30 PMN/ASunny.7 mphN/A29.77 "Hg10 mi
5:00 PM100 °FSunny.5 mph15%29.77 "Hg10 mi
4:30 PMN/ASunny.5 mphN/A29.77 "Hg10 mi
4:00 PM100 °FSunny.3 mph15%29.80 "Hg10 mi
3:30 PMN/ASunny.5 mphN/A29.80 "Hg10 mi
3:00 PM100 °FSunny.7 mph15%N/A10 mi
2:30 PMN/ASunny.3 mphN/A29.83 "Hg10 mi
2:00 PM100 °FSunny.5 mph15%29.83 "Hg10 mi
1:30 PMN/ASunny.5 mphN/A29.83 "Hg10 mi
1:00 PM97 °FSunny.5 mph19%29.86 "Hg10 mi
12:30 PMN/ASunny.7 mphN/A29.89 "Hg10 mi
12:00 PM93 °FSunny.8 mph24%29.89 "Hg10 mi
11:30 AMN/ASunny.6 mphN/A29.89 "Hg10 mi
10:30 AMN/ASunny.6 mphN/A29.92 "Hg10 mi
10:00 AM88 °FSmoke.6 mph24%29.92 "HgN/A
9:30 AMN/ASunny.12 mphN/A29.92 "Hg10 mi
9:00 AM84 °FSunny.10 mph25%29.92 "Hg10 mi
8:30 AMN/ASunny.12 mphN/A29.89 "Hg10 mi
8:00 AM81 °FSunny.8 mph28%29.89 "Hg10 mi
7:30 AMN/ASunny.6 mphN/A29.89 "Hg10 mi
7:00 AM81 °FSunny.8 mph28%29.86 "Hg10 mi
6:00 AM81 °FClear.10 mph28%29.86 "Hg10 mi
5:30 AMN/AClear.9 mphN/A29.83 "Hg10 mi
5:00 AM82 °FClear.9 mph25%29.83 "Hg10 mi
4:30 AMN/AClear.12 mphN/A29.83 "Hg10 mi
4:00 AM84 °FClear.12 mph25%29.83 "Hg10 mi
3:30 AMN/AClear.12 mphN/A29.86 "Hg10 mi
3:00 AM84 °FClear.9 mph20%29.86 "Hg10 mi
2:30 AMN/AClear.9 mphN/A29.86 "Hg10 mi
2:00 AM84 °FClear.2 mph25%29.86 "Hg10 mi
1:30 AMN/AClear.2 mphN/A29.86 "Hg10 mi
1:00 AM86 °FClear.5 mph22%29.86 "Hg10 mi
12:30 AMN/AClear.7 mphN/A29.86 "Hg10 mi
9:00 PM
Oct 24
93 °FClear.7 mph19%29.86 "Hg10 mi
8:30 PMN/AClear.7 mphN/A29.86 "Hg10 mi
8:00 PM93 °FClear.9 mph19%29.83 "Hg10 mi
7:30 PMN/AClear.9 mphN/A29.83 "Hg10 mi
7:00 PM97 °FClear.5 mph18%29.83 "Hg10 mi
Weather by CustomWeather, © 2014

See weather overviewHow to use our weather pages